Time,TemperatureF,DewpointF,PressureIn,WindDirection,WindDirectionDegrees,WindSpeedMPH,WindSpeedGustMPH,Humidity,HourlyPrecipIn,Conditions,Clouds,dailyrainin,SoftwareType,DateUTC
2013-03-10 00:00:00,45.7,29.5,30.05,ESE,119,0.0,0.0,53,0.00,,,0.00,Wunderground v.1.15,2013-03-10 05:00:00,
2013-03-10 00:10:00,44.9,28.8,30.04,ESE,119,0.0,0.0,53,0.00,,,0.00,Wunderground v.1.15,2013-03-10 05:10:00,
2013-03-10 00:15:00,45.4,27.8,30.04,ESE,119,0.0,0.0,50,0.00,,,0.00,Wunderground v.1.15,2013-03-10 05:15:00,
2013-03-10 00:25:00,46.1,27.5,30.04,ESE,119,0.0,0.0,48,0.00,,,0.00,Wunderground v.1.15,2013-03-10 05:25:00,
2013-03-10 00:30:00,46.5,27.3,30.04,ESE,119,0.0,0.0,47,0.00,,,0.00,Wunderground v.1.15,2013-03-10 05:30:00,
2013-03-10 00:35:00,47.0,27.8,30.03,ESE,119,0.0,0.0,47,0.00,,,0.00,Wunderground v.1.15,2013-03-10 05:35:00,
2013-03-10 00:40:00,47.4,27.6,30.03,ESE,119,0.0,0.0,46,0.00,,,0.00,Wunderground v.1.15,2013-03-10 05:40:00,
2013-03-10 00:45:00,47.7,27.4,30.03,ESE,119,0.0,0.0,45,0.00,,,0.00,Wunderground v.1.15,2013-03-10 05:45:00,
2013-03-10 00:55:00,47.7,27.9,30.03,ESE,119,0.0,0.0,46,0.00,,,0.00,Wunderground v.1.15,2013-03-10 05:55:00,
2013-03-10 01:00:00,47.4,28.2,30.03,ESE,119,0.0,0.0,47,0.00,,,0.00,Wunderground v.1.15,2013-03-10 06:00:00,
2013-03-10 01:10:00,47.3,27.5,30.03,ESE,119,0.0,0.0,46,0.00,,,0.00,Wunderground v.1.15,2013-03-10 06:10:00,
2013-03-10 01:15:00,47.1,27.9,30.03,ESE,119,0.0,0.0,47,0.00,,,0.00,Wunderground v.1.15,2013-03-10 06:15:00,
2013-03-10 01:25:00,47.0,28.8,30.02,ESE,119,0.0,0.0,49,0.00,,,0.00,Wunderground v.1.15,2013-03-10 06:25:00,
2013-03-10 01:30:00,46.7,28.5,30.02,ESE,119,0.0,0.0,49,0.00,,,0.00,Wunderground v.1.15,2013-03-10 06:30:00,
2013-03-10 01:40:00,46.8,27.6,30.03,ESE,119,0.0,0.0,47,0.00,,,0.00,Wunderground v.1.15,2013-03-10 06:40:00,
2013-03-10 01:45:00,46.8,27.6,30.03,ESE,119,0.0,0.0,47,0.00,,,0.00,Wunderground v.1.15,2013-03-10 06:45:00,
2013-03-10 01:55:00,46.7,28.0,30.02,ESE,119,0.0,0.0,48,0.00,,,0.00,Wunderground v.1.15,2013-03-10 06:55:00,
2013-03-10 03:00:00,46.5,27.8,30.02,ESE,119,0.0,0.0,48,0.00,,,0.00,Wunderground v.1.15,2013-03-10 07:00:00,
2013-03-10 03:05:00,46.5,27.8,30.01,ESE,119,0.0,0.0,48,0.00,,,0.00,Wunderground v.1.15,2013-03-10 07:05:00,
2013-03-10 03:15:00,46.5,27.8,30.01,ESE,119,0.0,0.0,48,0.00,,,0.00,Wunderground v.1.15,2013-03-10 07:15:00,
2013-03-10 03:25:00,46.4,27.8,30.00,ESE,119,0.0,0.0,48,0.00,,,0.00,Wunderground v.1.15,2013-03-10 07:25:00,
2013-03-10 03:30:00,46.4,27.8,30.00,ESE,119,0.0,1.0,48,0.00,,,0.00,Wunderground v.1.15,2013-03-10 07:30:00,
2013-03-10 03:40:00,46.8,28.1,30.00,ESE,119,0.0,0.0,48,0.00,,,0.00,Wunderground v.1.15,2013-03-10 07:40:00,
2013-03-10 03:45:00,46.8,28.6,30.00,ESE,119,0.0,0.0,49,0.00,,,0.00,Wunderground v.1.15,2013-03-10 07:45:00,
2013-03-10 03:55:00,47.1,27.9,30.00,ESE,119,0.0,0.0,47,0.00,,,0.00,Wunderground v.1.15,2013-03-10 07:55:00,
2013-03-10 04:00:00,47.3,28.1,30.00,ESE,119,0.0,0.0,47,0.00,,,0.00,Wunderground v.1.15,2013-03-10 08:00:00,
2013-03-10 04:10:00,47.1,28.4,29.99,ESE,119,0.0,0.0,48,0.00,,,0.00,Wunderground v.1.15,2013-03-10 08:10:00,
2013-03-10 04:15:00,47.1,28.4,29.99,ESE,119,0.0,0.0,48,0.00,,,0.00,Wunderground v.1.15,2013-03-10 08:15:00,
2013-03-10 04:25:00,47.3,28.1,29.99,ESE,119,0.0,0.0,47,0.00,,,0.00,Wunderground v.1.15,2013-03-10 08:25:00,
2013-03-10 04:30:00,47.3,28.6,29.99,ESE,119,0.0,0.0,48,0.00,,,0.00,Wunderground v.1.15,2013-03-10 08:30:00,
2013-03-10 04:40:00,47.1,28.4,29.98,ESE,119,0.0,0.0,48,0.00,,,0.00,Wunderground v.1.15,2013-03-10 08:40:00,
2013-03-10 04:45:00,47.3,29.1,29.98,ESE,119,0.0,0.0,49,0.00,,,0.00,Wunderground v.1.15,2013-03-10 08:45:00,
2013-03-10 04:55:00,47.1,28.9,29.97,ESE,119,0.0,0.0,49,0.00,,,0.00,Wunderground v.1.15,2013-03-10 08:55:00,
2013-03-10 05:00:00,47.1,28.9,29.97,ESE,119,1.0,1.0,49,0.00,,,0.00,Wunderground v.1.15,2013-03-10 09:00:00,
2013-03-10 05:10:00,47.3,29.1,29.97,ESE,119,1.0,1.0,49,0.00,,,0.00,Wunderground v.1.15,2013-03-10 09:10:00,
2013-03-10 05:15:00,47.4,29.2,29.97,ESE,119,1.0,1.0,49,0.00,,,0.00,Wunderground v.1.15,2013-03-10 09:15:00,
2013-03-10 05:25:00,47.6,29.4,29.97,ESE,119,0.0,1.0,49,0.00,,,0.00,Wunderground v.1.15,2013-03-10 09:25:00,
2013-03-10 05:30:00,47.6,29.4,29.97,ESE,119,1.0,1.0,49,0.00,,,0.00,Wunderground v.1.15,2013-03-10 09:30:00,
2013-03-10 05:40:00,47.6,31.3,29.98,ESE,119,0.0,0.0,53,0.00,,,0.00,Wunderground v.1.15,2013-03-10 09:40:00,
2013-03-10 05:45:00,47.1,31.3,29.98,ESE,119,0.0,0.0,54,0.00,,,0.00,Wunderground v.1.15,2013-03-10 09:45:00,
2013-03-10 05:55:00,46.8,32.4,29.98,ESE,119,0.0,0.0,57,0.00,,,0.01,Wunderground v.1.15,2013-03-10 09:55:00,
2013-03-10 06:00:00,46.5,32.5,29.98,ESE,119,0.0,0.0,58,0.00,,,0.01,Wunderground v.1.15,2013-03-10 10:00:00,
2013-03-10 06:10:00,46.0,34.5,30.00,ESE,119,0.0,0.0,64,0.00,,,0.01,Wunderground v.1.15,2013-03-10 10:10:00,
2013-03-10 06:15:00,45.4,35.5,30.00,ESE,119,0.0,0.0,68,0.00,,,0.01,Wunderground v.1.15,2013-03-10 10:15:00,
2013-03-10 06:25:00,44.6,33.9,30.00,ESE,119,0.0,0.0,66,0.00,,,0.01,Wunderground v.1.15,2013-03-10 10:25:00,
2013-03-10 06:30:00,44.6,33.9,30.00,ESE,119,0.0,0.0,66,0.00,,,0.01,Wunderground v.1.15,2013-03-10 10:30:00,
2013-03-10 06:40:00,44.5,34.6,30.00,ESE,119,0.0,0.0,68,0.00,,,0.01,Wunderground v.1.15,2013-03-10 10:40:00,
2013-03-10 06:45:00,44.2,34.3,30.00,ESE,119,0.0,0.0,68,0.00,,,0.01,Wunderground v.1.15,2013-03-10 10:45:00,
2013-03-10 06:55:00,43.9,34.0,30.01,ESE,119,0.0,0.0,68,0.00,,,0.01,Wunderground v.1.15,2013-03-10 10:55:00,
2013-03-10 07:00:00,43.6,33.4,30.01,ESE,119,0.0,0.0,67,0.00,,,0.01,Wunderground v.1.15,2013-03-10 11:00:00,
2013-03-10 07:10:00,43.3,33.4,30.01,ESE,119,0.0,0.0,68,0.00,,,0.01,Wunderground v.1.15,2013-03-10 11:10:00,
2013-03-10 07:15:00,43.3,33.4,30.01,ESE,119,0.0,0.0,68,0.00,,,0.01,Wunderground v.1.15,2013-03-10 11:15:00,
2013-03-10 07:25:00,43.2,33.3,30.01,ESE,119,0.0,0.0,68,0.00,,,0.01,Wunderground v.1.15,2013-03-10 11:25:00,
2013-03-10 07:30:00,43.3,33.1,30.01,ESE,119,0.0,0.0,67,0.00,,,0.01,Wunderground v.1.15,2013-03-10 11:30:00,
2013-03-10 07:40:00,44.5,31.9,30.01,ESE,119,0.0,1.0,61,0.00,,,0.01,Wunderground v.1.15,2013-03-10 11:40:00,
2013-03-10 07:45:00,45.1,31.2,30.01,ESE,119,0.0,1.0,58,0.00,,,0.01,Wunderground v.1.15,2013-03-10 11:45:00,
2013-03-10 07:55:00,45.5,31.1,30.02,ESE,119,0.0,0.0,57,0.00,,,0.01,Wunderground v.1.15,2013-03-10 11:55:00,
2013-03-10 08:00:00,45.7,31.3,30.02,ESE,119,0.0,0.0,57,0.00,,,0.01,Wunderground v.1.15,2013-03-10 12:00:00,
2013-03-10 08:10:00,45.8,31.4,30.03,ESE,119,0.0,0.0,57,0.00,,,0.01,Wunderground v.1.15,2013-03-10 12:10:00,
2013-03-10 08:15:00,45.7,31.3,30.03,ESE,119,0.0,0.0,57,0.00,,,0.01,Wunderground v.1.15,2013-03-10 12:15:00,
2013-03-10 08:25:00,46.0,30.7,30.03,ESE,119,0.0,0.0,55,0.00,,,0.01,Wunderground v.1.15,2013-03-10 12:25:00,
2013-03-10 08:30:00,46.2,30.9,30.03,ESE,119,0.0,0.0,55,0.00,,,0.01,Wunderground v.1.15,2013-03-10 12:30:00,
2013-03-10 08:40:00,46.2,30.9,30.03,ESE,119,0.0,1.0,55,0.00,,,0.01,Wunderground v.1.15,2013-03-10 12:40:00,
2013-03-10 08:45:00,46.4,31.1,30.03,ESE,119,0.0,1.0,55,0.00,,,0.01,Wunderground v.1.15,2013-03-10 12:45:00,
2013-03-10 08:55:00,46.7,31.4,30.03,ESE,119,0.0,1.0,55,0.00,,,0.01,Wunderground v.1.15,2013-03-10 12:55:00,
2013-03-10 09:00:00,47.0,31.7,30.03,ESE,119,0.0,0.0,55,0.00,,,0.01,Wunderground v.1.15,2013-03-10 13:00:00,
2013-03-10 09:10:00,47.4,31.1,30.03,ESE,119,0.0,0.0,53,0.00,,,0.01,Wunderground v.1.15,2013-03-10 13:10:00,
2013-03-10 09:15:00,47.6,31.8,30.03,ESE,119,0.0,0.0,54,0.00,,,0.01,Wunderground v.1.15,2013-03-10 13:15:00,
2013-03-10 09:25:00,47.9,32.0,30.03,ESE,119,0.0,1.0,54,0.00,,,0.01,Wunderground v.1.15,2013-03-10 13:25:00,
2013-03-10 09:30:00,48.0,31.7,30.03,ESE,119,0.0,0.0,53,0.00,,,0.01,Wunderground v.1.15,2013-03-10 13:30:00,
2013-03-10 09:40:00,48.5,32.1,30.03,ESE,119,1.0,1.0,53,0.00,,,0.01,Wunderground v.1.15,2013-03-10 13:40:00,
2013-03-10 09:45:00,48.8,32.9,30.03,SE,124,1.0,1.0,54,0.00,,,0.01,Wunderground v.1.15,2013-03-10 13:45:00,
2013-03-10 09:55:00,49.1,31.2,30.03,SE,126,1.0,2.0,50,0.00,,,0.01,Wunderground v.1.15,2013-03-10 13:55:00,
2013-03-10 10:00:00,49.4,32.0,30.03,SE,126,1.0,1.0,51,0.00,,,0.01,Wunderground v.1.15,2013-03-10 14:00:00,
2013-03-10 10:10:00,50.1,32.7,30.04,SE,130,1.0,3.0,51,0.00,,,0.01,Wunderground v.1.15,2013-03-10 14:10:00,
2013-03-10 10:15:00,50.5,33.0,30.04,SE,138,1.0,3.0,51,0.00,,,0.01,Wunderground v.1.15,2013-03-10 14:15:00,
2013-03-10 10:25:00,51.0,33.5,30.03,ESE,120,1.0,2.0,51,0.00,,,0.01,Wunderground v.1.15,2013-03-10 14:25:00,
2013-03-10 10:30:00,51.3,32.3,30.03,ESE,122,1.0,1.0,48,0.00,,,0.01,Wunderground v.1.15,2013-03-10 14:30:00,
2013-03-10 10:40:00,51.7,33.6,30.02,SE,136,1.0,3.0,50,0.00,,,0.01,Wunderground v.1.15,2013-03-10 14:40:00,
2013-03-10 10:45:00,52.3,32.6,30.02,SE,126,1.0,3.0,47,0.00,,,0.01,Wunderground v.1.15,2013-03-10 14:45:00,
2013-03-10 10:55:00,53.8,34.6,30.02,SE,129,1.0,3.0,48,0.00,,,0.01,Wunderground v.1.15,2013-03-10 14:55:00,
2013-03-10 11:00:00,54.5,33.6,30.02,SE,144,2.0,2.0,45,0.00,,,0.01,Wunderground v.1.15,2013-03-10 15:00:00,
2013-03-10 11:10:00,55.0,32.3,30.02,SE,135,2.0,2.0,42,0.00,,,0.01,Wunderground v.1.15,2013-03-10 15:10:00,
2013-03-10 11:15:00,54.8,32.7,30.02,SE,128,2.0,2.0,43,0.00,,,0.01,Wunderground v.1.15,2013-03-10 15:15:00,
2013-03-10 11:25:00,55.6,34.6,30.01,SE,146,2.0,3.0,45,0.00,,,0.01,Wunderground v.1.15,2013-03-10 15:25:00,
2013-03-10 11:30:00,56.0,36.0,30.01,SE,128,2.0,2.0,47,0.00,,,0.01,Wunderground v.1.15,2013-03-10 15:30:00,
2013-03-10 11:40:00,56.6,35.5,30.00,ESE,117,1.0,1.0,45,0.00,,,0.01,Wunderground v.1.15,2013-03-10 15:40:00,
2013-03-10 11:45:00,57.0,34.7,30.00,South,185,1.0,2.0,43,0.00,,,0.01,Wunderground v.1.15,2013-03-10 15:45:00,
2013-03-10 11:55:00,58.6,35.6,30.00,SE,126,2.0,2.0,42,0.00,,,0.01,Wunderground v.1.15,2013-03-10 15:55:00,
2013-03-10 12:00:00,59.3,36.2,30.00,SE,130,2.0,2.0,42,0.00,,,0.01,Wunderground v.1.15,2013-03-10 16:00:00,
2013-03-10 12:10:00,60.2,37.0,30.00,ESE,123,2.0,2.0,42,0.00,,,0.01,Wunderground v.1.15,2013-03-10 16:10:00,
2013-03-10 12:15:00,60.7,36.8,30.00,SSW,195,2.0,4.0,41,0.00,,,0.01,Wunderground v.1.15,2013-03-10 16:15:00,
2013-03-10 12:25:00,60.7,34.9,30.00,SSW,192,2.0,4.0,38,0.00,,,0.01,Wunderground v.1.15,2013-03-10 16:25:00,
2013-03-10 12:30:00,61.0,34.5,30.00,ESE,113,2.0,2.0,37,0.00,,,0.01,Wunderground v.1.15,2013-03-10 16:30:00,
2013-03-10 12:40:00,61.0,33.8,30.00,SE,137,2.0,2.0,36,0.00,,,0.01,Wunderground v.1.15,2013-03-10 16:40:00,
2013-03-10 12:45:00,61.5,35.6,30.00,South,171,1.0,2.0,38,0.00,,,0.01,Wunderground v.1.15,2013-03-10 16:45:00,
2013-03-10 12:55:00,62.6,33.8,29.99,ESE,120,2.0,2.0,34,0.00,,,0.01,Wunderground v.1.15,2013-03-10 16:55:00,
2013-03-10 13:00:00,63.2,34.3,29.99,SSE,151,2.0,2.0,34,0.00,,,0.01,Wunderground v.1.15,2013-03-10 17:00:00,
2013-03-10 13:10:00,63.9,33.4,29.98,SSE,148,3.0,3.0,32,0.00,,,0.01,Wunderground v.1.15,2013-03-10 17:10:00,
2013-03-10 13:15:00,64.0,35.0,29.98,SE,144,3.0,3.0,34,0.00,,,0.01,Wunderground v.1.15,2013-03-10 17:15:00,
2013-03-10 13:25:00,64.3,34.6,29.98,South,187,4.0,5.0,33,0.00,,,0.01,Wunderground v.1.15,2013-03-10 17:25:00,
2013-03-10 13:30:00,64.2,32.1,29.98,ESE,119,3.0,3.0,30,0.00,,,0.01,Wunderground v.1.15,2013-03-10 17:30:00,
2013-03-10 13:40:00,64.5,33.2,29.98,SSW,194,4.0,4.0,31,0.00,,,0.01,Wunderground v.1.15,2013-03-10 17:40:00,
2013-03-10 13:45:00,65.0,33.6,29.98,SW,223,4.0,6.0,31,0.00,,,0.01,Wunderground v.1.15,2013-03-10 17:45:00,
2013-03-10 13:55:00,65.8,35.1,29.97,West,277,2.0,3.0,32,0.00,,,0.01,Wunderground v.1.15,2013-03-10 17:55:00,
2013-03-10 14:00:00,66.0,36.1,29.97,SSE,152,2.0,8.0,33,0.00,,,0.01,Wunderground v.1.15,2013-03-10 18:00:00,
2013-03-10 14:05:00,65.3,32.2,29.96,North,351,3.0,8.0,29,0.00,,,0.01,Wunderground v.1.15,2013-03-10 18:05:00,
2013-03-10 14:15:00,65.0,32.8,29.96,NW,304,2.0,4.0,30,0.00,,,0.01,Wunderground v.1.15,2013-03-10 18:15:00,
2013-03-10 14:25:00,64.8,32.6,29.96,SSW,195,3.0,4.0,30,0.00,,,0.01,Wunderground v.1.15,2013-03-10 18:25:00,
2013-03-10 14:30:00,64.8,33.4,29.96,SW,215,4.0,5.0,31,0.00,,,0.01,Wunderground v.1.15,2013-03-10 18:30:00,
2013-03-10 14:40:00,65.0,33.6,29.94,South,188,4.0,4.0,31,0.00,,,0.01,Wunderground v.1.15,2013-03-10 18:40:00,
2013-03-10 14:45:00,64.8,33.4,29.94,SSW,195,3.0,4.0,31,0.00,,,0.01,Wunderground v.1.15,2013-03-10 18:45:00,
2013-03-10 14:55:00,65.2,32.1,29.93,WSW,250,3.0,4.0,29,0.00,,,0.01,Wunderground v.1.15,2013-03-10 18:55:00,
2013-03-10 15:00:00,65.0,35.9,29.93,South,169,4.0,4.0,34,0.00,,,0.01,Wunderground v.1.15,2013-03-10 19:00:00,
2013-03-10 15:10:00,65.6,34.1,29.92,SSE,159,3.0,3.0,31,0.00,,,0.01,Wunderground v.1.15,2013-03-10 19:10:00,
2013-03-10 15:15:00,66.1,34.6,29.92,SSE,148,2.0,3.0,31,0.00,,,0.01,Wunderground v.1.15,2013-03-10 19:15:00,
2013-03-10 15:25:00,66.8,35.2,29.92,WSW,242,2.0,3.0,31,0.00,,,0.01,Wunderground v.1.15,2013-03-10 19:25:00,
2013-03-10 15:30:00,67.1,32.9,29.92,SW,223,2.0,3.0,28,0.00,,,0.01,Wunderground v.1.15,2013-03-10 19:30:00,
2013-03-10 15:40:00,67.6,32.4,29.92,South,190,2.0,5.0,27,0.00,,,0.01,Wunderground v.1.15,2013-03-10 19:40:00,
2013-03-10 15:45:00,67.4,32.2,29.92,SW,226,3.0,5.0,27,0.00,,,0.01,Wunderground v.1.15,2013-03-10 19:45:00,
2013-03-10 15:55:00,67.6,32.4,29.92,South,182,3.0,5.0,27,0.00,,,0.01,Wunderground v.1.15,2013-03-10 19:55:00,
2013-03-10 16:00:00,67.6,32.4,29.92,SW,232,2.0,2.0,27,0.00,,,0.01,Wunderground v.1.15,2013-03-10 20:00:00,
2013-03-10 16:05:00,67.4,35.7,29.91,SSW,208,2.0,4.0,31,0.00,,,0.01,Wunderground v.1.15,2013-03-10 20:05:00,
2013-03-10 16:15:00,68.4,34.9,29.91,South,187,1.0,2.0,29,0.00,,,0.01,Wunderground v.1.15,2013-03-10 20:15:00,
2013-03-10 16:25:00,69.3,34.8,29.92,SSE,155,1.0,2.0,28,0.00,,,0.01,Wunderground v.1.15,2013-03-10 20:25:00,
2013-03-10 16:30:00,68.9,32.6,29.92,South,190,2.0,4.0,26,0.00,,,0.01,Wunderground v.1.15,2013-03-10 20:30:00,
2013-03-10 16:40:00,69.1,33.7,29.92,SE,125,3.0,3.0,27,0.00,,,0.01,Wunderground v.1.15,2013-03-10 20:40:00,
2013-03-10 16:45:00,69.3,31.9,29.92,South,178,3.0,3.0,25,0.00,,,0.01,Wunderground v.1.15,2013-03-10 20:45:00,
2013-03-10 16:55:00,68.8,36.1,29.90,ESE,109,2.0,3.0,30,0.00,,,0.01,Wunderground v.1.15,2013-03-10 20:55:00,
2013-03-10 17:00:00,68.8,34.3,29.90,SW,221,2.0,4.0,28,0.00,,,0.01,Wunderground v.1.15,2013-03-10 21:00:00,
2013-03-10 17:10:00,68.9,33.5,29.89,SE,142,2.0,2.0,27,0.00,,,0.01,Wunderground v.1.15,2013-03-10 21:10:00,
2013-03-10 17:15:00,68.9,32.6,29.89,SE,129,2.0,2.0,26,0.00,,,0.01,Wunderground v.1.15,2013-03-10 21:15:00,
2013-03-10 17:25:00,68.6,32.3,29.88,South,182,2.0,2.0,26,0.00,,,0.01,Wunderground v.1.15,2013-03-10 21:25:00,
2013-03-10 17:30:00,68.8,31.5,29.88,ESE,123,1.0,1.0,25,0.00,,,0.01,Wunderground v.1.15,2013-03-10 21:30:00,
2013-03-10 17:40:00,68.3,31.1,29.87,SE,139,1.0,1.0,25,0.00,,,0.01,Wunderground v.1.15,2013-03-10 21:40:00,
2013-03-10 17:46:00,67.8,33.5,29.87,West,273,1.0,2.0,28,0.00,,,0.01,Wunderground v.1.15,2013-03-10 21:46:00,
2013-03-10 17:55:00,67.3,33.1,29.88,South,169,0.0,1.0,28,0.00,,,0.01,Wunderground v.1.15,2013-03-10 21:55:00,
2013-03-10 18:00:00,66.9,32.7,29.88,South,169,0.0,0.0,28,0.00,,,0.01,Wunderground v.1.15,2013-03-10 22:00:00,
2013-03-10 18:05:00,66.8,32.6,29.87,South,169,0.0,0.0,28,0.00,,,0.01,Wunderground v.1.15,2013-03-10 22:05:00,
2013-03-10 18:15:00,66.3,33.1,29.87,South,169,0.0,0.0,29,0.00,,,0.01,Wunderground v.1.15,2013-03-10 22:15:00,
2013-03-10 18:25:00,66.0,32.8,29.87,South,169,0.0,0.0,29,0.00,,,0.01,Wunderground v.1.15,2013-03-10 22:25:00,
2013-03-10 18:30:00,66.0,31.9,29.87,South,169,0.0,1.0,28,0.00,,,0.01,Wunderground v.1.15,2013-03-10 22:30:00,
2013-03-10 18:40:00,65.6,33.3,29.86,South,169,0.0,0.0,30,0.00,,,0.01,Wunderground v.1.15,2013-03-10 22:40:00,
2013-03-10 18:45:00,65.5,33.2,29.86,South,169,0.0,0.0,30,0.00,,,0.01,Wunderground v.1.15,2013-03-10 22:45:00,
2013-03-10 18:55:00,65.0,33.6,29.86,South,169,0.0,0.0,31,0.00,,,0.01,Wunderground v.1.15,2013-03-10 22:55:00,
2013-03-10 19:00:00,64.5,34.7,29.86,South,169,0.0,0.0,33,0.00,,,0.01,Wunderground v.1.15,2013-03-10 23:00:00,
2013-03-10 19:10:00,64.2,31.3,29.86,South,169,0.0,0.0,29,0.00,,,0.01,Wunderground v.1.15,2013-03-10 23:10:00,
2013-03-10 19:15:00,64.0,31.9,29.86,South,169,0.0,0.0,30,0.00,,,0.01,Wunderground v.1.15,2013-03-10 23:15:00,
2013-03-10 19:25:00,62.6,34.5,29.85,South,169,0.0,1.0,35,0.00,,,0.01,Wunderground v.1.15,2013-03-10 23:25:00,
2013-03-10 19:30:00,62.1,32.6,29.85,South,169,0.0,0.0,33,0.00,,,0.01,Wunderground v.1.15,2013-03-10 23:30:00,
2013-03-10 19:40:00,62.6,32.3,29.85,South,169,0.0,1.0,32,0.00,,,0.01,Wunderground v.1.15,2013-03-10 23:40:00,
2013-03-10 19:45:00,62.7,31.6,29.85,South,169,0.0,1.0,31,0.00,,,0.01,Wunderground v.1.15,2013-03-10 23:45:00,
2013-03-10 19:55:00,62.7,32.4,29.84,South,169,0.0,0.0,32,0.00,,,0.01,Wunderground v.1.15,2013-03-10 23:55:00,
2013-03-10 20:00:00,62.6,33.1,29.84,South,169,0.0,0.0,33,0.00,,,0.01,Wunderground v.1.15,2013-03-11 00:00:00,
2013-03-10 20:10:00,62.3,32.0,29.84,South,169,0.0,1.0,32,0.00,,,0.01,Wunderground v.1.15,2013-03-11 00:10:00,
2013-03-10 20:15:00,62.3,32.0,29.84,South,169,0.0,1.0,32,0.00,,,0.01,Wunderground v.1.15,2013-03-11 00:15:00,
2013-03-10 20:25:00,62.3,31.3,29.85,South,169,0.0,1.0,31,0.00,,,0.01,Wunderground v.1.15,2013-03-11 00:25:00,
2013-03-10 20:30:00,62.3,31.3,29.85,South,169,0.0,0.0,31,0.00,,,0.01,Wunderground v.1.15,2013-03-11 00:30:00,
2013-03-10 20:40:00,62.0,31.8,29.84,South,169,0.0,0.0,32,0.00,,,0.01,Wunderground v.1.15,2013-03-11 00:40:00,
2013-03-10 20:45:00,62.0,31.0,29.84,South,169,0.0,0.0,31,0.00,,,0.01,Wunderground v.1.15,2013-03-11 00:45:00,
2013-03-10 20:55:00,61.8,31.6,29.84,South,169,0.0,0.0,32,0.00,,,0.01,Wunderground v.1.15,2013-03-11 00:55:00,
2013-03-10 21:00:00,61.8,30.8,29.84,South,169,0.0,0.0,31,0.00,,,0.01,Wunderground v.1.15,2013-03-11 01:00:00,
2013-03-10 21:10:00,61.6,30.6,29.83,South,169,0.0,0.0,31,0.00,,,0.01,Wunderground v.1.15,2013-03-11 01:10:00,
2013-03-10 21:15:00,61.5,31.3,29.83,South,169,0.0,0.0,32,0.00,,,0.01,Wunderground v.1.15,2013-03-11 01:15:00,
2013-03-10 21:25:00,61.3,30.4,29.83,South,169,0.0,1.0,31,0.00,,,0.01,Wunderground v.1.15,2013-03-11 01:25:00,
2013-03-10 21:30:00,61.0,30.9,29.83,South,169,0.0,1.0,32,0.00,,,0.01,Wunderground v.1.15,2013-03-11 01:30:00,
2013-03-10 21:40:00,61.0,30.1,29.81,South,169,0.0,1.0,31,0.00,,,0.01,Wunderground v.1.15,2013-03-11 01:40:00,
2013-03-10 21:45:00,60.5,32.0,29.81,South,169,0.0,1.0,34,0.00,,,0.01,Wunderground v.1.15,2013-03-11 01:45:00,
2013-03-10 21:55:00,60.1,30.1,29.82,South,169,0.0,0.0,32,0.00,,,0.01,Wunderground v.1.15,2013-03-11 01:55:00,
2013-03-10 22:00:00,60.2,29.4,29.82,South,169,0.0,0.0,31,0.00,,,0.01,Wunderground v.1.15,2013-03-11 02:00:00,
2013-03-10 22:10:00,60.5,30.5,29.81,South,169,0.0,0.0,32,0.00,,,0.01,Wunderground v.1.15,2013-03-11 02:10:00,
2013-03-10 22:15:00,60.7,29.9,29.81,SE,142,0.0,1.0,31,0.00,,,0.01,Wunderground v.1.15,2013-03-11 02:15:00,
2013-03-10 22:25:00,61.2,30.3,29.81,SE,142,1.0,1.0,31,0.00,,,0.01,Wunderground v.1.15,2013-03-11 02:25:00,
2013-03-10 22:30:00,61.3,30.4,29.81,SE,142,1.0,1.0,31,0.00,,,0.01,Wunderground v.1.15,2013-03-11 02:30:00,
2013-03-10 22:40:00,60.5,30.5,29.81,SE,125,1.0,1.0,32,0.00,,,0.01,Wunderground v.1.15,2013-03-11 02:40:00,
2013-03-10 22:45:00,60.2,31.0,29.81,SE,125,1.0,1.0,33,0.00,,,0.01,Wunderground v.1.15,2013-03-11 02:45:00,
2013-03-10 22:55:00,60.4,31.1,29.81,ESE,116,1.0,2.0,33,0.00,,,0.01,Wunderground v.1.15,2013-03-11 02:55:00,
2013-03-10 23:00:00,60.2,31.0,29.81,ESE,116,1.0,1.0,33,0.00,,,0.01,Wunderground v.1.15,2013-03-11 03:00:00,
2013-03-10 23:10:00,60.4,31.1,29.81,SE,130,1.0,1.0,33,0.00,,,0.01,Wunderground v.1.15,2013-03-11 03:10:00,
2013-03-10 23:15:00,60.5,32.0,29.81,SE,131,1.0,1.0,34,0.00,,,0.01,Wunderground v.1.15,2013-03-11 03:15:00,
2013-03-10 23:25:00,60.2,33.1,29.81,SE,132,1.0,1.0,36,0.00,,,0.01,Wunderground v.1.15,2013-03-11 03:25:00,
2013-03-10 23:30:00,60.2,33.1,29.81,SE,128,1.0,1.0,36,0.00,,,0.01,Wunderground v.1.15,2013-03-11 03:30:00,
2013-03-10 23:40:00,59.8,33.5,29.81,SE,128,1.0,1.0,37,0.00,,,0.01,Wunderground v.1.15,2013-03-11 03:40:00,
2013-03-10 23:45:00,59.6,33.9,29.81,SE,128,1.0,1.0,38,0.00,,,0.01,Wunderground v.1.15,2013-03-11 03:45:00,
2013-03-10 23:55:00,59.3,34.3,29.81,SSW,202,1.0,1.0,39,0.00,,,0.01,Wunderground v.1.15,2013-03-11 03:55:00,